Location: Prairie Dale
(45.6972°N, 104.5033°W)
Time: 21:43:19
(UTC+00:00)

ESTCUBE 1 - Pass Details

Date: 02 July 2022
Orbit: 645 x 657 km, 97.9° (Epoch: 16 August)

Event Time Altitude Azimuth Distance (km) Brightness Sun altitude
Exits shadow 04:05:53 12° 118° (ESE) 1,888 ? -10.5°
Maximum altitude 04:09:06 26° 66° (ENE) 1,274 ? -10.8°
Drops below altitude 10° 04:12:49 10° 10° (N) 2,060 ? -11.3°
Sets 04:15:19 0° 358° (N) 2,978 ? -11.5°
